PBO Station Position Time Series. Reference Frame : NAM14
Format Version,1.1.0
4-character ID,RCSC
Station name,SanClementeCA201
Begin Date, 2016-12-29
End Date, 2022-04-04
Release Date, 2022-10-06
Reference position, 33.4441444715 North Latitude, -117.5864765986 East Longitude, 160.96711 meters elevation,
Date, North (mm), East (mm), Vertical (mm), North Std. Deviation (mm), East Std. Deviation (mm),              Vertical Std. Deviation (mm), Quality,
2016-12-29,0.00, 0.00, 0.00, 1.83, 1.61, 7.16, repro,
2016-12-30,-0.42, -1.50, 3.16, 1.83, 1.65, 7.22, repro,
2016-12-31,-1.14, -0.67, 3.88, 1.81, 1.62, 7.09, repro,
2017-01-01,-0.94, 0.00, 12.11, 1.85, 1.63, 7.20, repro,
2017-01-02,-0.74, -0.66, 6.22, 1.84, 1.61, 7.13, repro,
2017-01-03,-0.93, -0.35, -6.05, 1.85, 1.64, 7.27, repro,
2017-01-04,-0.30, -1.07, -1.82, 1.82, 1.64, 7.20, repro,
2017-01-05,-0.40, -1.99, 7.94, 1.81, 1.60, 7.07, repro,
2017-01-06,0.05, -1.18, 2.52, 1.82, 1.60, 7.07, repro,
2017-01-07,0.38, -0.65, -0.23, 1.96, 1.75, 7.72, repro,
2017-01-08,0.38, 0.00, -1.02, 1.82, 1.59, 7.06, repro,
2017-01-09,2.96, -2.00, 4.20, 1.89, 1.67, 7.39, repro,
2017-01-10,-0.43, -1.00, 3.37, 1.88, 1.63, 7.31, repro,
2017-01-11,-0.51, -1.42, 5.51, 1.85, 1.64, 7.26, repro,
2017-01-12,-0.03, -1.53, 1.36, 1.84, 1.62, 7.16, repro,
2017-01-13,-0.33, -0.93, -1.92, 1.83, 1.60, 7.10, repro,
2017-01-14,-0.01, -1.49, -6.15, 1.83, 1.61, 7.15, repro,
2017-01-15,-0.82, -2.19, -1.09, 1.81, 1.59, 7.02, repro,
2017-01-16,0.65, -2.10, -5.21, 1.89, 1.69, 7.58, repro,
2017-01-17,-1.17, -0.90, 1.39, 1.92, 1.76, 7.44, repro,
2017-01-18,0.29, -0.86, -1.68, 1.88, 1.66, 7.28, repro,
2017-01-19,-0.22, -1.13, 9.16, 1.92, 1.72, 7.53, repro,
2017-01-20,-0.17, -1.42, 12.66, 1.82, 1.64, 7.18, repro,
2017-01-21,-0.40, -0.71, 14.77, 1.83, 1.62, 7.13, repro,
2017-01-22,0.59, 0.45, 0.58, 1.81, 1.60, 7.04, repro,
2017-01-23,1.56, 0.96, 4.41, 1.82, 1.63, 7.11, repro,
2017-01-24,1.27, -0.42, 8.54, 1.82, 1.61, 7.09, repro,
2017-01-25,0.81, 0.25, -4.29, 1.85, 1.63, 7.18, repro,
2017-01-26,1.08, 0.17, -4.54, 1.86, 1.64, 7.32, repro,
2017-01-27,2.12, 0.04, -13.80, 1.83, 1.61, 7.15, repro,
2017-01-28,2.30, 1.25, -12.91, 1.84, 1.64, 7.25, repro,
2017-01-29,0.81, -0.38, -6.88, 1.84, 1.64, 7.22, repro,
2017-01-30,0.86, -0.90, -0.53, 1.82, 1.61, 7.05, repro,
2017-01-31,1.28, -0.68, -2.51, 1.81, 1.60, 7.05, repro,
2017-02-01,-0.34, -0.77, -0.79, 1.84, 1.63, 7.20, repro,
2017-02-02,0.63, -0.20, -1.97, 1.90, 1.71, 7.59, repro,
2017-02-03,1.07, 0.99, -6.57, 1.81, 1.60, 7.04, repro,
2017-02-04,1.56, -0.77, -3.49, 1.84, 1.61, 7.18, repro,
2017-02-05,-0.15, -0.59, -0.73, 1.82, 1.61, 7.10, repro,
2017-02-06,0.87, 0.59, 4.00, 1.86, 1.67, 7.44, repro,
2017-02-07,0.78, 0.11, 0.77, 1.87, 1.63, 7.24, repro,
2017-02-08,1.10, -0.22, -0.71, 1.83, 1.62, 7.13, repro,
2017-02-09,1.23, 0.10, -5.53, 1.85, 1.65, 7.27, repro,
2017-02-10,2.58, -1.48, -4.85, 1.81, 1.60, 7.05, repro,
2017-02-11,-0.16, -0.32, -2.19, 1.83, 1.62, 7.14, repro,
2017-02-12,0.65, -0.30, -5.23, 1.82, 1.61, 7.10, repro,
2017-02-13,0.34, 0.29, -1.89, 1.82, 1.60, 7.01, repro,
2017-02-14,0.80, -1.72, -2.77, 1.82, 1.59, 7.04, repro,
2017-02-15,0.89, -0.23, 1.68, 1.82, 1.59, 7.05, repro,
2017-02-16,2.36, 0.05, 3.47, 1.81, 1.59, 7.01, repro,
2017-02-17,-0.87, -0.87, 11.96, 1.89, 1.70, 7.54, repro,
2017-02-18,0.48, -0.53, 6.55, 1.80, 1.58, 6.95, repro,
2017-02-19,-0.13, -0.52, 2.96, 1.80, 1.58, 6.97, repro,
2017-02-20,1.69, -0.45, -5.31, 1.80, 1.59, 7.00, repro,
2017-02-21,1.28, -0.36, -7.82, 1.81, 1.61, 7.04, repro,
2017-02-22,0.59, 0.07, -5.31, 1.81, 1.61, 7.08, repro,
2017-02-23,-0.16, 0.05, -2.35, 1.83, 1.65, 7.13, repro,
2017-02-24,0.47, 0.16, -6.50, 1.87, 1.65, 7.24, repro,
2017-02-25,0.74, -0.61, 0.80, 1.97, 1.67, 7.49, repro,
2017-02-26,0.94, -0.28, 3.01, 1.81, 1.60, 7.02, repro,
2017-02-27,-0.63, -1.31, 4.72, 1.85, 1.62, 7.14, repro,
2017-02-28,0.74, 0.13, 1.79, 1.82, 1.60, 7.02, repro,
2017-03-01,0.36, 0.08, -7.83, 1.83, 1.63, 7.16, repro,
2017-03-02,1.31, 0.14, -4.20, 1.82, 1.59, 7.05, repro,
2017-03-03,0.81, -0.56, -0.62, 1.80, 1.59, 7.00, repro,
2017-03-04,-0.20, -1.63, -0.27, 1.82, 1.61, 7.09, repro,
2017-03-05,-0.66, 0.16, 1.53, 1.84, 1.64, 7.24, repro,
2017-03-06,0.22, -0.31, 0.20, 1.85, 1.60, 7.13, repro,
2017-03-07,0.32, 0.95, -2.30, 1.84, 1.64, 7.06, repro,
2017-03-08,1.41, 0.04, -4.23, 1.82, 1.60, 7.05, repro,
2017-03-09,0.37, -0.40, -5.05, 1.80, 1.59, 7.01, repro,
2017-03-10,-0.37, -0.18, -5.09, 1.82, 1.62, 7.10, repro,
2017-03-11,-0.36, -1.74, -5.44, 1.86, 1.61, 7.19, repro,
2017-03-12,1.22, 0.42, -6.65, 1.79, 1.59, 6.97, repro,
2017-03-13,0.49, -0.31, -3.08, 1.82, 1.61, 7.10, repro,
2017-03-14,0.59, -0.96, 0.20, 1.81, 1.59, 7.02, repro,
2017-03-15,-0.25, -1.36, 1.29, 1.83, 1.64, 7.18, repro,
2017-03-16,0.29, 0.04, 4.87, 1.84, 1.66, 7.24, repro,
2017-03-17,0.21, -0.79, -3.41, 1.80, 1.60, 7.00, repro,
2017-03-18,1.21, -2.24, -4.58, 1.82, 1.63, 7.19, repro,
2017-03-19,0.03, -1.30, -1.48, 1.81, 1.59, 7.03, repro,
2017-03-20,-0.08, -1.04, -2.70, 1.81, 1.61, 7.07, repro,
2017-03-21,0.04, 0.29, 1.90, 1.85, 1.64, 7.25, repro,
2017-03-22,0.16, -0.22, 3.44, 1.89, 1.71, 7.55, repro,
2017-03-23,0.53, -0.38, 3.63, 1.85, 1.67, 7.23, repro,
2017-03-24,0.53, -0.84, -7.41, 1.83, 1.65, 7.15, repro,
2017-03-25,0.79, 0.19, 0.35, 1.85, 1.63, 7.23, repro,
2017-03-26,0.59, -1.11, 2.97, 1.84, 1.62, 7.16, repro,
2017-03-27,0.93, -1.51, -4.01, 1.83, 1.62, 7.19, repro,
2017-03-28,1.05, -2.69, -0.46, 1.88, 1.66, 7.21, repro,
2017-03-29,1.17, -2.32, -1.22, 1.85, 1.65, 7.27, repro,
2017-03-30,0.19, -0.96, -3.25, 1.81, 1.62, 7.09, repro,
2017-03-31,0.16, -2.00, 2.36, 1.81, 1.60, 7.02, repro,
2017-04-01,0.07, -1.29, 2.65, 1.81, 1.59, 6.99, repro,
2017-04-02,0.57, -0.88, -3.08, 1.83, 1.65, 7.14, repro,
2017-04-03,0.55, -1.42, 0.55, 1.81, 1.59, 7.00, repro,
2017-04-04,-0.43, -2.02, -1.35, 1.83, 1.61, 7.16, repro,
2017-04-05,0.47, -1.96, -2.99, 1.82, 1.60, 7.12, repro,
2017-04-06,0.68, -1.66, -2.27, 1.92, 1.69, 7.40, repro,
2017-04-07,1.92, -1.73, 1.80, 1.82, 1.61, 7.13, repro,
2017-04-08,1.04, -2.20, 5.02, 1.83, 1.63, 7.15, repro,
2017-04-09,0.48, -1.38, 0.53, 1.83, 1.60, 7.08, repro,
2017-04-10,0.78, -2.57, -6.76, 1.81, 1.60, 7.03, repro,
2017-04-11,-0.33, -1.84, -0.73, 1.84, 1.61, 7.16, repro,
2017-04-12,-0.03, -1.73, -1.57, 1.84, 1.67, 7.29, repro,
2017-04-13,-0.68, -1.68, 2.37, 1.86, 1.65, 7.33, repro,
2017-04-14,1.09, -1.65, -4.27, 1.86, 1.65, 7.26, repro,
2017-04-15,0.72, -2.68, -4.11, 1.84, 1.60, 7.15, repro,
2017-04-16,1.05, -1.71, -1.31, 1.81, 1.59, 7.05, repro,
2017-04-17,0.67, -1.01, -2.03, 1.82, 1.59, 7.07, repro,
2017-04-18,-0.17, -2.67, 4.29, 1.86, 1.67, 7.30, repro,
2017-04-19,0.98, -1.54, -1.38, 1.84, 1.63, 7.19, repro,
2017-04-20,1.33, -3.05, -4.60, 1.85, 1.61, 7.18, repro,
2017-04-21,0.66, -2.22, -2.64, 1.85, 1.65, 7.17, repro,
2017-04-22,-0.32, -2.56, -1.80, 1.82, 1.59, 6.99, repro,
2017-04-23,-0.26, -2.86, -0.69, 1.81, 1.59, 6.98, repro,
2017-04-24,0.41, -2.93, 0.57, 1.82, 1.62, 7.08, repro,
2017-04-25,-0.36, -2.65, -1.34, 1.99, 1.77, 7.72, repro,
2017-04-26,0.52, -2.66, -1.50, 1.83, 1.61, 7.08, repro,
2017-04-27,0.83, -3.42, -4.29, 1.84, 1.63, 7.21, repro,
2017-04-28,1.53, -2.17, 2.58, 1.83, 1.62, 7.17, repro,
2017-04-29,0.91, -1.38, -3.49, 1.87, 1.64, 7.23, repro,
2017-04-30,1.38, -2.23, -2.94, 1.82, 1.58, 7.04, repro,
2017-05-01,-0.05, -2.23, -0.02, 1.81, 1.58, 6.99, repro,
2017-05-02,0.37, -2.99, -5.47, 1.81, 1.59, 7.01, repro,
2017-05-03,-0.08, -2.44, -1.09, 1.81, 1.59, 7.03, repro,
2017-05-04,1.36, -1.52, -1.19, 1.80, 1.57, 6.95, repro,
2017-05-05,0.51, -1.13, -1.36, 1.85, 1.60, 7.20, repro,
2017-05-06,-0.89, -2.61, -1.69, 1.81, 1.59, 7.05, repro,
2017-05-07,-0.97, -0.70, 3.28, 1.86, 1.68, 7.35, repro,
2017-05-08,-0.17, -0.75, 1.07, 1.90, 1.72, 7.53, repro,
2017-05-09,-0.15, -1.46, -1.80, 1.82, 1.60, 7.09, repro,
2017-05-10,0.45, -0.77, -1.23, 1.81, 1.58, 6.98, repro,
2017-05-11,-0.01, -1.49, -5.15, 1.85, 1.66, 7.27, repro,
2017-05-12,-0.58, -1.11, -4.31, 1.81, 1.58, 6.99, repro,
2017-05-13,0.79, -1.97, 3.84, 1.82, 1.61, 7.06, repro,
2017-05-14,0.50, -1.34, -0.17, 1.83, 1.62, 7.12, repro,
2017-05-15,-0.45, -1.12, 5.17, 1.81, 1.60, 7.03, repro,
2017-05-16,0.78, -1.94, 4.97, 1.80, 1.58, 6.95, repro,
2017-05-17,-0.26, -2.01, 7.33, 1.83, 1.61, 7.13, repro,
2017-05-18,0.50, -2.46, -0.52, 1.87, 1.70, 7.51, repro,
2017-05-19,1.98, -2.52, -4.37, 1.86, 1.61, 7.19, repro,
2017-05-20,2.35, -1.98, 3.78, 1.82, 1.60, 7.09, repro,
2017-05-21,0.20, -2.72, 1.35, 1.80, 1.58, 6.95, repro,
2017-05-22,1.35, -3.10, 2.77, 1.84, 1.62, 7.24, repro,
2017-05-23,0.12, -3.04, 2.35, 1.85, 1.60, 7.09, repro,
2017-05-24,1.04, -2.39, 4.60, 1.85, 1.62, 7.20, repro,
2017-05-25,1.29, -2.84, 8.72, 1.82, 1.60, 7.07, repro,
2017-05-26,0.78, -1.55, 4.16, 1.86, 1.68, 7.33, repro,
2017-05-27,0.31, -2.24, -2.04, 1.82, 1.59, 7.01, repro,
2017-05-28,0.50, -2.31, 1.50, 1.82, 1.60, 7.05, repro,
2017-05-29,0.88, -2.30, 3.18, 1.82, 1.61, 7.07, repro,
2017-05-30,-0.23, -3.47, 1.05, 1.81, 1.62, 7.10, repro,
2017-05-31,1.91, -2.27, 8.24, 1.86, 1.67, 7.25, repro,
2017-06-01,0.09, -3.28, 6.51, 1.80, 1.61, 7.02, repro,
2017-06-02,1.35, -2.56, 10.21, 1.85, 1.67, 7.24, repro,
2017-06-03,0.48, -2.96, 5.99, 1.82, 1.59, 7.03, repro,
2017-06-04,0.52, -1.95, 3.36, 1.81, 1.62, 7.07, repro,
2017-06-05,0.20, -2.22, 4.90, 1.79, 1.58, 6.95, repro,
2017-06-06,0.35, -2.53, 6.43, 1.83, 1.65, 7.12, repro,
2017-06-07,0.71, -2.59, 1.36, 1.88, 1.63, 7.20, repro,
2017-06-08,0.29, -3.12, 3.20, 1.83, 1.60, 7.09, repro,
2017-06-09,1.44, -3.32, 8.08, 1.82, 1.60, 7.08, repro,
2017-06-10,0.17, -2.76, 4.72, 1.82, 1.61, 7.09, repro,
2017-06-11,0.77, -3.19, 6.77, 1.84, 1.65, 7.16, repro,
2017-06-12,0.73, -3.44, 5.00, 1.81, 1.60, 7.01, repro,
2017-06-13,1.26, -3.16, 5.11, 1.83, 1.59, 7.08, repro,
2017-06-14,1.12, -2.26, 6.10, 1.82, 1.59, 7.03, repro,
2017-06-15,1.00, -2.60, 0.08, 1.81, 1.62, 7.02, repro,
2017-06-16,1.16, -3.63, 4.28, 2.01, 1.82, 7.76, repro,
2017-06-17,2.13, -3.05, 3.54, 1.82, 1.59, 7.06, repro,
2017-06-18,0.96, -4.07, 5.09, 1.83, 1.62, 7.14, repro,
2017-06-19,0.62, -3.07, 0.73, 1.80, 1.58, 6.96, repro,
2017-06-20,1.80, -2.85, -0.11, 1.85, 1.59, 7.04, repro,
2017-06-21,1.04, -3.28, 4.97, 1.80, 1.60, 6.99, repro,
2017-06-22,-0.16, -4.10, 5.17, 1.81, 1.59, 7.03, repro,
2017-06-23,0.73, -2.70, 5.94, 1.82, 1.60, 7.08, repro,
2017-06-24,2.73, -1.44, -2.12, 1.81, 1.59, 7.05, repro,
2017-06-25,1.24, -2.67, -2.65, 1.83, 1.63, 7.10, repro,
2017-06-26,0.24, -2.78, 2.63, 1.80, 1.58, 6.94, repro,
2017-06-27,0.14, -4.04, 5.72, 1.80, 1.59, 6.95, repro,
2017-06-28,-0.10, -3.88, 6.33, 1.84, 1.63, 7.14, repro,
2017-06-29,0.60, -2.57, 10.10, 1.83, 1.60, 7.08, repro,
2017-06-30,-0.62, -2.85, 1.55, 2.01, 1.82, 7.94, repro,
2017-07-01,1.39, -2.25, -2.50, 1.84, 1.63, 7.11, repro,
2017-07-02,0.67, -3.11, 2.50, 1.84, 1.63, 7.14, repro,
2017-07-03,0.41, -2.74, 1.89, 1.80, 1.58, 6.95, repro,
2017-07-04,-0.91, -1.33, 4.46, 1.84, 1.65, 7.17, repro,
2017-07-05,1.30, -2.76, -2.94, 1.81, 1.59, 7.03, repro,
2017-07-06,2.04, -2.23, 2.44, 1.89, 1.59, 7.14, repro,
2017-07-07,1.58, -2.15, 0.32, 1.89, 1.59, 7.10, repro,
2017-07-08,1.82, -2.80, 1.76, 1.90, 1.61, 7.21, repro,
2017-07-09,0.13, -2.45, -3.47, 1.80, 1.58, 6.95, repro,
2017-07-10,1.16, -2.76, 10.43, 1.81, 1.59, 6.98, repro,
2017-07-11,1.39, -2.71, 4.55, 1.82, 1.57, 6.93, repro,
2017-07-12,0.62, -2.40, 5.27, 1.87, 1.63, 7.18, repro,
2017-07-13,1.03, -2.86, 5.79, 1.86, 1.67, 7.20, repro,
2017-07-14,0.38, -2.90, 4.13, 1.83, 1.61, 7.08, repro,
2017-07-15,0.81, -3.33, 3.20, 1.90, 1.65, 7.31, repro,
2017-07-16,-0.17, -3.53, 8.16, 1.83, 1.60, 7.04, repro,
2017-07-17,1.48, -3.19, 10.32, 1.83, 1.62, 7.14, repro,
2017-07-18,-0.77, -3.06, 2.17, 1.83, 1.61, 7.07, repro,
2017-07-19,1.43, -2.75, 8.31, 1.85, 1.63, 7.25, repro,
2017-07-20,1.29, -2.60, 4.53, 1.87, 1.69, 7.34, repro,
2017-07-21,0.43, -3.05, 2.96, 1.83, 1.62, 7.12, repro,
2017-07-22,-1.08, -4.14, 7.30, 1.87, 1.68, 7.43, repro,
2017-07-23,1.18, -2.60, 3.49, 1.87, 1.66, 7.37, repro,
2017-07-24,-1.65, -4.11, 4.52, 1.85, 1.67, 7.31, repro,
2017-07-25,0.48, -2.69, 3.68, 1.88, 1.70, 7.51, repro,
2017-07-26,0.41, -3.12, 3.31, 1.85, 1.65, 7.23, repro,
2017-07-27,1.69, -3.66, 1.34, 1.88, 1.64, 7.31, repro,
2017-07-28,2.05, -3.30, -0.50, 1.84, 1.63, 7.17, repro,
2017-07-29,0.41, -3.47, 9.86, 1.83, 1.66, 7.23, repro,
2017-07-30,0.72, -3.60, 2.07, 1.84, 1.63, 7.19, repro,
2017-07-31,0.19, -2.83, 1.47, 1.83, 1.63, 7.13, repro,
2017-08-01,-1.61, -3.63, 1.64, 1.83, 1.62, 7.09, repro,
2017-08-02,0.71, -3.22, -1.31, 1.85, 1.63, 7.25, repro,
2017-08-03,3.16, -6.39, 4.29, 1.85, 1.61, 7.10, repro,
2017-08-04,3.80, -6.79, 1.72, 1.88, 1.67, 7.41, repro,
2017-08-05,3.17, -7.31, -0.13, 1.83, 1.62, 7.13, repro,
2017-08-06,4.05, -5.93, -3.53, 1.83, 1.62, 7.14, repro,
2017-08-07,2.22, -6.70, 4.04, 1.84, 1.64, 7.23, repro,
2017-08-08,2.09, -7.13, 0.42, 1.83, 1.63, 7.21, repro,
2017-08-09,3.44, -6.52, -1.41, 1.82, 1.62, 7.11, repro,
2017-08-10,3.23, -8.09, -2.67, 1.81, 1.60, 6.98, repro,
2017-08-11,3.41, -7.75, -1.43, 1.93, 1.71, 7.54, repro,
2017-08-12,3.18, -6.95, 5.13, 1.84, 1.64, 7.17, repro,
2017-08-13,2.77, -7.45, 7.06, 1.84, 1.63, 7.17, repro,
2017-08-14,2.64, -8.32, 4.66, 1.91, 1.70, 7.48, repro,
2017-08-15,2.98, -6.16, 1.63, 1.91, 1.77, 7.69, repro,
2017-08-16,3.11, -6.30, 4.60, 1.90, 1.72, 7.56, repro,
2017-08-17,2.96, -7.42, -0.35, 1.92, 1.73, 7.52, repro,
2017-08-18,5.04, -7.63, 0.90, 1.91, 1.72, 7.46, repro,
2017-08-19,2.99, -6.39, -3.01, 1.90, 1.71, 7.45, repro,
2017-08-20,2.23, -6.72, -2.34, 1.87, 1.68, 7.44, repro,
2017-08-21,4.06, -6.11, 1.15, 1.85, 1.65, 7.25, repro,
2017-08-22,3.22, -5.77, 0.70, 1.89, 1.67, 7.36, repro,
2017-08-23,3.90, -6.80, 4.32, 1.89, 1.68, 7.44, repro,
2017-08-24,1.94, -7.26, -3.21, 1.87, 1.67, 7.34, repro,
2017-08-25,2.36, -6.57, 2.89, 1.86, 1.62, 7.20, repro,
2017-08-26,2.29, -8.18, 1.70, 1.82, 1.60, 7.04, repro,
2017-08-27,1.90, -6.05, -2.27, 1.82, 1.60, 7.01, repro,
2017-08-28,2.62, -7.28, 2.97, 1.87, 1.63, 7.11, repro,
2017-08-29,1.80, -7.27, -1.66, 1.90, 1.67, 7.23, repro,
2017-08-30,2.90, -6.69, -0.90, 1.80, 1.58, 6.89, repro,
2017-08-31,1.64, -8.26, 3.79, 1.84, 1.62, 7.05, repro,
2017-09-01,4.10, -7.51, 2.18, 1.90, 1.68, 7.23, repro,
2017-09-02,3.08, -7.51, 7.54, 1.82, 1.59, 7.01, repro,
2017-09-03,3.31, -5.80, 5.88, 1.90, 1.66, 7.25, repro,
2017-09-04,2.58, -8.33, -0.23, 1.83, 1.64, 7.16, repro,
2017-09-05,2.58, -7.38, 0.17, 1.88, 1.68, 7.30, repro,
2017-09-06,3.63, -6.87, -0.12, 1.81, 1.59, 6.94, repro,
2017-09-07,3.48, -7.51, 3.53, 1.87, 1.70, 7.34, repro,
2017-09-08,3.79, -8.05, 6.26, 1.84, 1.65, 7.18, repro,
2017-09-09,3.74, -7.95, -2.36, 1.87, 1.70, 7.32, repro,
2017-09-10,3.04, -6.28, 7.96, 1.82, 1.60, 6.98, repro,
2017-09-11,3.01, -9.32, -4.44, 1.80, 1.60, 6.93, repro,
2017-09-12,1.93, -6.52, 7.72, 1.84, 1.63, 7.03, repro,
2017-09-13,1.02, -7.29, 4.32, 1.86, 1.67, 7.19, repro,
2017-09-14,2.72, -7.24, 12.60, 1.88, 1.72, 7.32, repro,
2017-09-15,2.07, -7.20, 6.05, 2.08, 2.04, 8.35, repro,
2017-09-16,2.70, -6.63, 10.55, 1.90, 1.73, 7.56, repro,
2017-09-17,1.51, -7.46, 0.55, 1.85, 1.67, 7.18, repro,
2017-09-18,1.83, -7.18, 6.50, 1.83, 1.61, 7.07, repro,
2017-09-19,2.03, -6.87, 14.11, 1.84, 1.64, 7.22, repro,
2017-09-20,2.49, -7.55, 6.99, 1.92, 1.72, 7.52, repro,
2017-09-21,2.32, -6.98, 8.34, 1.94, 1.67, 7.30, repro,
2017-09-22,1.00, -6.01, 3.63, 1.81, 1.60, 6.96, repro,
2017-09-23,3.90, -6.02, 5.53, 1.84, 1.61, 7.07, repro,
2017-09-24,2.28, -6.46, 7.63, 1.84, 1.63, 7.16, repro,
2017-09-25,1.41, -7.21, 8.69, 1.82, 1.59, 7.00, repro,
2017-09-26,2.35, -6.31, 8.71, 1.82, 1.59, 6.97, repro,
2017-09-27,0.74, -5.85, -1.61, 1.81, 1.60, 6.99, repro,
2017-09-28,2.27, -6.34, 0.67, 1.89, 1.66, 7.48, repro,
2017-09-29,1.63, -6.44, 0.85, 1.82, 1.62, 7.07, repro,
2017-09-30,1.46, -7.08, 4.14, 1.83, 1.60, 7.03, repro,
2017-10-01,2.11, -8.58, 6.79, 1.85, 1.61, 7.12, repro,
2017-10-02,2.71, -6.27, 1.48, 1.88, 1.68, 7.39, repro,
2017-10-03,2.18, -6.45, 3.45, 1.82, 1.62, 7.07, repro,
2017-10-04,2.97, -6.09, -1.05, 1.89, 1.67, 7.42, repro,
2017-10-05,2.21, -5.92, -1.05, 1.83, 1.62, 7.11, repro,
2017-10-06,1.93, -6.12, 4.23, 1.84, 1.62, 7.10, repro,
2017-10-07,3.22, -7.06, 7.02, 1.82, 1.60, 6.98, repro,
2017-10-08,2.38, -7.37, 7.65, 1.81, 1.60, 7.02, repro,
2017-10-09,2.69, -7.50, 4.54, 1.83, 1.61, 7.04, repro,
2017-10-10,2.34, -6.79, 2.56, 1.82, 1.62, 7.04, repro,
2017-10-11,1.76, -5.77, 2.05, 1.84, 1.62, 7.08, repro,
2017-10-12,1.84, -7.32, 5.17, 1.87, 1.65, 7.20, repro,
2017-10-13,3.77, -6.33, 2.36, 1.83, 1.63, 7.15, repro,
2017-10-14,2.47, -5.93, 2.10, 1.83, 1.63, 7.11, repro,
2017-10-15,3.03, -6.46, -1.58, 1.82, 1.61, 7.01, repro,
2017-10-16,3.15, -8.02, -1.92, 1.83, 1.66, 7.10, repro,
2017-10-17,2.47, -6.97, 8.11, 1.82, 1.60, 7.00, repro,
2017-10-18,3.42, -8.21, 8.14, 1.81, 1.59, 6.95, repro,
2017-10-19,2.38, -7.37, 12.14, 1.86, 1.65, 7.16, repro,
2017-10-20,2.73, -6.25, 5.05, 1.93, 1.73, 7.53, repro,
2017-10-21,4.40, -6.98, 8.72, 1.88, 1.68, 7.36, repro,
2017-10-22,3.23, -6.68, 3.91, 1.89, 1.64, 7.31, repro,
2017-10-23,2.89, -7.40, -3.59, 1.83, 1.61, 7.01, repro,
2017-10-24,3.57, -7.07, -0.36, 1.81, 1.58, 6.93, repro,
2017-10-25,4.28, -7.18, 2.31, 1.83, 1.60, 7.01, repro,
2017-10-26,2.91, -5.96, 5.14, 1.80, 1.59, 6.92, repro,
2017-10-27,1.68, -5.67, -1.43, 1.87, 1.61, 7.07, repro,
2017-10-28,1.97, -6.35, 0.55, 1.80, 1.58, 6.88, repro,
2017-10-29,3.00, -6.33, 4.71, 1.81, 1.59, 6.94, repro,
2017-10-30,1.99, -5.98, 0.04, 1.83, 1.61, 7.05, repro,
2017-10-31,1.91, -6.34, 7.26, 1.85, 1.66, 7.23, repro,
2017-11-01,2.41, -5.31, 4.91, 1.84, 1.64, 7.17, repro,
2017-11-02,2.28, -5.71, 2.83, 1.91, 1.68, 7.33, repro,
2017-11-03,2.18, -4.69, -5.07, 1.84, 1.61, 7.12, repro,
2017-11-04,1.15, -5.17, 1.20, 1.82, 1.60, 7.01, repro,
2017-11-05,1.40, -5.72, 0.26, 1.82, 1.60, 7.01, repro,
2017-11-06,1.73, -5.61, -5.27, 1.82, 1.60, 6.98, repro,
2017-11-07,2.50, -4.70, 1.28, 1.82, 1.60, 6.98, repro,
2017-11-08,2.85, -4.97, -5.91, 1.84, 1.63, 7.11, repro,
2017-11-09,2.39, -4.43, -1.17, 1.86, 1.68, 7.26, repro,
2017-11-10,1.97, -4.84, 1.66, 1.86, 1.65, 7.19, repro,
2017-11-11,2.37, -6.50, 0.35, 1.88, 1.70, 7.33, repro,
2017-11-12,2.41, -4.27, -0.05, 1.85, 1.66, 7.22, repro,
2017-11-13,2.38, -5.78, 7.57, 1.85, 1.66, 7.23, repro,
2017-11-14,2.59, -3.96, 3.07, 1.82, 1.62, 7.07, repro,
2017-11-15,2.46, -4.29, 1.38, 1.82, 1.62, 7.06, repro,
2017-11-16,2.03, -5.37, 2.10, 1.88, 1.69, 7.27, repro,
2017-11-17,2.92, -5.98, 4.09, 1.84, 1.65, 7.09, repro,
2017-11-18,2.57, -5.41, 5.91, 1.81, 1.60, 6.94, repro,
2017-11-19,2.37, -4.15, 5.57, 1.82, 1.60, 7.00, repro,
2017-11-20,2.00, -4.60, 8.32, 1.86, 1.62, 7.22, repro,
2017-11-21,1.83, -4.76, -1.11, 1.81, 1.59, 6.91, repro,
2017-11-22,3.17, -5.65, -1.19, 1.82, 1.61, 6.98, repro,
2017-11-23,2.37, -5.11, 3.44, 1.80, 1.58, 6.88, repro,
2017-11-24,3.10, -6.01, 7.22, 1.80, 1.58, 6.92, repro,
2017-11-25,3.34, -6.08, 0.71, 1.85, 1.63, 7.12, repro,
2017-11-26,3.71, -4.44, -0.41, 1.85, 1.64, 7.17, repro,
2017-11-27,2.05, -5.30, 6.36, 1.83, 1.63, 7.10, repro,
2017-11-28,2.19, -5.10, 2.88, 1.85, 1.66, 7.18, repro,
2017-11-29,2.32, -5.67, 5.76, 1.87, 1.64, 7.23, repro,
2017-11-30,1.88, -5.29, 1.92, 1.88, 1.65, 7.29, repro,
2017-12-01,3.14, -4.37, -0.67, 2.00, 1.72, 7.56, repro,
2017-12-02,1.66, -5.16, 3.53, 1.83, 1.63, 7.03, repro,
2017-12-03,1.62, -6.30, 4.34, 1.83, 1.63, 7.06, repro,
2017-12-04,2.17, -5.15, 5.31, 1.82, 1.60, 6.98, repro,
2017-12-05,2.28, -4.93, 2.24, 1.90, 1.71, 7.38, repro,
2017-12-06,2.57, -5.85, -3.22, 1.89, 1.67, 7.36, repro,
2017-12-07,3.05, -4.32, 0.32, 1.91, 1.71, 7.47, repro,
2017-12-08,3.40, -3.78, 1.87, 1.81, 1.59, 6.92, repro,
2017-12-09,2.52, -5.03, 3.08, 1.81, 1.58, 6.90, repro,
2017-12-10,3.31, -5.37, -3.55, 1.80, 1.60, 6.92, repro,
2017-12-11,2.25, -5.64, 0.32, 1.98, 1.82, 7.60, repro,
2017-12-12,1.71, -4.24, 1.15, 1.80, 1.58, 6.91, repro,
2017-12-13,1.85, -5.39, 0.83, 1.82, 1.59, 6.96, repro,
2017-12-14,0.86, -5.50, 3.91, 1.83, 1.65, 7.01, repro,
2017-12-15,1.56, -4.91, -3.02, 1.79, 1.58, 6.86, repro,
2017-12-16,1.44, -6.81, 2.12, 1.80, 1.60, 6.97, repro,
2017-12-17,1.26, -6.03, -0.52, 1.80, 1.59, 6.91, repro,
2017-12-18,0.63, -4.97, 1.46, 1.95, 1.76, 7.52, repro,
2017-12-19,1.19, -3.01, 2.73, 1.86, 1.61, 7.06, repro,
2017-12-20,2.44, -5.43, -1.84, 1.86, 1.70, 7.31, repro,
2017-12-21,0.99, -5.24, 3.66, 1.81, 1.61, 6.92, repro,
2017-12-22,0.65, -3.78, 6.55, 1.82, 1.59, 6.96, repro,
2017-12-23,1.44, -3.87, 4.58, 1.82, 1.59, 6.94, repro,
2017-12-24,0.52, -3.93, 0.79, 1.83, 1.59, 7.00, repro,
2017-12-25,0.47, -4.01, -1.56, 1.83, 1.61, 7.00, repro,
2017-12-26,2.26, -4.34, -2.44, 1.84, 1.62, 7.07, repro,
2017-12-27,1.74, -3.79, -4.29, 1.86, 1.61, 7.04, repro,
2017-12-28,2.08, -4.86, 2.81, 1.84, 1.59, 6.96, repro,
2017-12-29,1.71, -4.69, 6.66, 1.84, 1.60, 6.99, repro,
2017-12-30,1.83, -4.17, 0.94, 1.82, 1.59, 6.96, repro,
2017-12-31,1.15, -4.42, 1.85, 1.85, 1.69, 7.30, repro,
2018-01-01,1.83, -4.92, -4.56, 1.83, 1.61, 7.06, repro,
2018-01-02,2.25, -4.15, -4.03, 1.83, 1.62, 7.07, repro,
2018-01-03,3.25, -5.44, 2.00, 1.83, 1.62, 7.04, repro,
2018-01-04,2.01, -4.21, 4.34, 1.86, 1.66, 7.21, repro,
2018-01-05,1.50, -4.83, -4.40, 1.85, 1.64, 7.11, repro,
2018-01-06,2.41, -5.13, -0.81, 1.84, 1.63, 7.08, repro,
2018-01-07,2.04, -5.32, -1.68, 1.81, 1.60, 6.94, repro,
2018-01-08,0.83, -4.38, 5.85, 1.87, 1.66, 7.12, repro,
2018-01-09,0.46, -3.97, 7.16, 1.87, 1.68, 7.31, repro,
2018-01-10,0.85, -4.15, 4.68, 1.82, 1.61, 6.97, repro,
2018-01-11,1.53, -4.78, -2.58, 1.80, 1.59, 6.92, repro,
2018-01-12,2.46, -3.26, -5.76, 1.81, 1.58, 6.90, repro,
2018-01-13,2.36, -3.68, -1.76, 1.82, 1.59, 6.97, repro,
2018-01-14,2.41, -4.32, -0.49, 1.84, 1.61, 7.06, repro,
2018-01-15,2.03, -4.28, -2.93, 1.86, 1.67, 7.20, repro,
2018-01-16,1.85, -4.45, -4.95, 1.85, 1.64, 7.17, repro,
2018-01-17,1.50, -3.92, -3.42, 1.81, 1.58, 6.95, repro,
2018-01-18,2.80, -3.58, -3.12, 1.82, 1.60, 6.97, repro,
2018-01-19,2.20, -4.01, 3.06, 1.88, 1.66, 7.17, repro,
2018-01-20,2.06, -4.04, 7.38, 1.88, 1.67, 7.33, repro,
2018-01-21,2.12, -4.05, 2.59, 1.92, 1.71, 7.59, repro,
2018-01-22,1.38, -4.06, -1.93, 1.81, 1.61, 7.03, repro,
2018-01-23,2.00, -3.85, -0.80, 1.81, 1.61, 7.01, repro,
2018-01-24,1.67, -3.68, 1.16, 1.89, 1.67, 7.30, repro,
2018-01-25,1.70, -2.61, 9.02, 1.88, 1.67, 7.24, repro,
2018-01-26,1.94, -3.21, -2.27, 1.86, 1.66, 7.14, repro,
2018-01-27,2.92, -3.59, 1.16, 1.85, 1.67, 7.19, repro,
2018-01-28,3.21, -2.30, -7.72, 1.84, 1.64, 7.08, repro,
2018-01-29,2.40, -3.72, -7.88, 1.85, 1.64, 7.13, repro,
2018-01-30,2.82, -4.74, 0.17, 1.86, 1.65, 7.20, repro,
2018-01-31,1.99, -4.14, 5.21, 1.87, 1.66, 7.23, repro,
2018-02-01,2.40, -4.96, -0.74, 1.85, 1.64, 7.14, repro,
2018-02-02,1.99, -4.46, -4.88, 1.86, 1.65, 7.19, repro,
2018-02-03,2.87, -5.16, -1.09, 1.84, 1.65, 7.10, repro,
2018-02-04,1.83, -3.21, -0.73, 1.90, 1.74, 7.38, repro,
2018-02-05,3.10, -3.60, 3.00, 1.88, 1.69, 7.23, repro,
2018-02-06,2.79, -4.02, 1.76, 1.95, 1.70, 7.54, repro,
2018-02-07,2.75, -3.88, -0.92, 1.89, 1.69, 7.36, repro,
2018-02-08,2.37, -4.23, -4.88, 1.88, 1.66, 7.18, repro,
2018-02-09,1.40, -4.20, 2.02, 1.88, 1.71, 7.28, repro,
2018-02-10,1.13, -3.48, 2.84, 1.87, 1.65, 7.19, repro,
2018-02-11,1.80, -2.74, 2.81, 1.85, 1.65, 7.15, repro,
2018-02-12,1.24, -2.91, 2.68, 1.89, 1.74, 7.47, repro,
2018-02-13,1.73, -3.28, 0.11, 1.91, 1.73, 7.41, repro,
2018-02-14,2.63, -3.87, -2.41, 1.98, 1.80, 7.68, repro,
2018-02-15,1.93, -3.32, 0.78, 1.85, 1.64, 7.15, repro,
2018-02-16,1.43, -3.79, 1.30, 1.85, 1.70, 7.26, repro,
2018-02-17,2.46, -3.12, 4.04, 1.86, 1.66, 7.19, repro,
2018-02-18,1.83, -4.33, 8.57, 1.92, 1.77, 7.59, repro,
2018-02-19,1.57, -4.47, 6.63, 1.90, 1.68, 7.40, repro,
2018-02-20,1.43, -3.53, 2.52, 1.85, 1.62, 7.04, repro,
2018-02-21,2.46, -2.92, -2.48, 1.88, 1.73, 7.42, repro,
2018-02-22,0.61, -3.39, -1.43, 1.89, 1.67, 7.30, repro,
2018-02-23,1.78, -3.06, -2.93, 1.98, 1.75, 7.51, repro,
2018-02-24,1.92, -4.19, 4.14, 1.90, 1.65, 7.27, repro,
2018-02-25,2.00, -4.50, 4.94, 1.86, 1.66, 7.16, repro,